AirNav   Everest Fuels
 
 1367 users online  

C74 Cassville Municipal Airport
Cassville, Wisconsin, USA

GOING TO CASSVILLE?


FAA INFORMATION EFFECTIVE 16 JULY 2020

Location

FAA Identifier: C74
Lat/Long: 42-42-15.3750N 090-57-57.9850W
42-42.256250N 090-57.966417W
42.7042708,-90.9661069
(estimated)
Elevation: 627 ft. / 191 m (estimated)
Variation: 02E (1985)
From city: 1 mile SE of CASSVILLE, WI
Time zone: UTC -5 (UTC -6 during Standard Time)
Zip code: 53806

Airport Operations

Airport use: Open to the public
Activation date: 09/1951
Control tower: no
ARTCC: CHICAGO CENTER
FSS: GREEN BAY FLIGHT SERVICE STATION
NOTAMs facility: GRB (NOTAM-D service available)
Attendance: UNATNDD
Wind indicator: lighted
Segmented circle: no
Lights: SS-SR

Airport Communications

CTAF: 122.9

Nearby radio navigation aids

VOR radial/distance  VOR name  Freq  Var
DBQr324/21.4DUBUQUE VORTAC115.8004E

Airport Services

Parking: tiedowns
Airframe service: NONE
Powerplant service: NONE
Bottled oxygen: NONE
Bulk oxygen: NONE

Runway Information

Runway 11/29

Dimensions: 3000 x 50 ft. / 914 x 15 m
Surface: asphalt, in poor condition
NMRS CRACKS AND VEGETATION GROWING ENTIRE PAVEMENT LEN.
Weight bearing capacity: 
Single wheel: 21.0
Double wheel: 40.0
Runway edge lights: non-standard
THR LGTS EMIT GREEN ONLY.
RUNWAY 11  RUNWAY 29
Latitude: 42-42.344167N42-42.168333N
Longitude: 090-58.279000W090-57.653833W
Elevation: 627.0 ft.627.0 ft.
Traffic pattern: rightleft
Displaced threshold: no600 ft.
Markings: nonenone
Runway end identifier lights: nono
Obstructions: 40 ft. tree, 200 ft. from runway, 105 ft. left of centerline
30 FT BRUSH 0-200 FT FM THR 105 FT L.
15 ft. road, lighted, 200 ft. from runway, 90 ft. left of centerline
4 FT FENCE 70 FT L & ROAD 90 FT L OF EXTDD CNTRLN.

Airport Ownership and Management from official FAA records

Ownership: Publicly-owned
Owner: VILLAGE OF CASSVILLE
PO BOX 171
CASSVILLE, WI 53806
Phone 608-725-5180
Manager: AL MULLER
1202 JACK OAK ROAD
CASSVILLE, WI 53806
Phone (608) 725-5895

Airport Operational Statistics

Aircraft based on the field: 8
Single engine airplanes: 7
Ultralights: 1
    
Aircraft operations: avg 59/week *
74% local general aviation
24% transient general aviation
2% air taxi
* for 12-month period ending 26 September 2018

Additional Remarks

1350 FT X 20 FT TWY WEST END RWY 11.
200 FT STACK 3900 FT W RWY 11.
270 FT BLUFF PARALLELS RWY 800 FT N.
FOR WINTER COND & SNOW REMOVAL CALL AMGR.
FOR CD CTC CHICAGO ARTCC AT 630-906-8921.

Instrument Procedures

There are no published instrument procedures at C74.

Some nearby airports with instrument procedures:

KPDC - Prairie du Chien Municipal Airport (20 nm N)
KDBQ - Dubuque Regional Airport (21 nm SE)
KPVB - Platteville Municipal Airport (23 nm E)
KOVS - Boscobel Airport (30 nm NE)
KMXO - Monticello Regional Airport (30 nm S)
 
Loc | Ops | Rwys | IFR | FBO | Links
Com | Nav | Svcs | Stats | Notes
Area around C74 (Cassville Municipal Airport)
 
Road maps at: MapQuest Bing Google
 
Aerial photo
WARNING: Photo may not be current or correct
Aerial photo of C74 (Cassville Municipal Airport)
Do you have a better or more recent aerial photo of Cassville Municipal Airport that you would like to share? If so, please send us your photo.

 
Sectional chart

 
Airport distance calculator
Flying to Cassville Municipal Airport? Find the distance to fly.

From to C74

Sunrise and sunset
Times for 11-Aug-2020
 Local
(UTC-5)
 Zulu
(UTC)
Morning civil twilight05:3710:37
Sunrise06:0811:08
Sunset20:1001:10
Evening civil twilight20:4001:40

Current date and time
Zulu (UTC)  11-Aug-2020 14:04:27
Local (UTC-5)  11-Aug-2020 09:04:27
 
METAR
KPDC 
20nm N 
111355Z AUTO 00000KT 10SM CLR 18/14 A3004 RMK AO2 T01830139
KDBQ 
22nm SE 
111353Z 36007KT 10SM CLR 21/16 A3004 RMK AO2 SLP169 T02060156
KPVB 
23nm E 
111355Z AUTO 31003KT 10SM CLR 19/19 A3004 RMK AO1 T01940189
KOVS 
29nm NE 
111353Z AUTO 00000KT 10SM FEW003 18/17 A3003 RMK AO2 SLP168 T01830167
KMXO 
31nm S 
101815Z AUTO 34025G31KT 4SM -RA SCT022 BKN048 OVC070 21/21 A2986 RMK AO2
KMRJ 
35nm E 
111355Z AUTO 33004KT 10SM CLR 20/15 A3004 RMK AO2
TAF
KDBQ 
22nm SE 
111120Z 1112/1212 VRB04KT P6SM FEW250
NOTAMs
Click for the latest NOTAMs
NOTAMs are issued by the DoD/FAA and will open in a separate window not controlled by AirNav.

 

 
 

Where to Eat: Catering, Restaurants, Food shops

  
 Business Name 
 
 Contact 
 
 Services / Description 
 
Distance
 
Comments
  
Sand Bar 608-725-5055
no information available

If you are affiliated with Sand Bar and would like to show here your services, contact info, web link, logo, and more, click here
0.2 miles  
   write
 

Would you like to see your business listed on this page?

 If your business provides an interesting product or service to pilots, flight crews, aircraft, or users of the Cassville Municipal Airport, you should consider listing it here.  To start the listing process, click on the button below
 
Add a business
 

Other Pages about Cassville Municipal Airport

Page from the Wisconsin airport directory (PDF)
 
Update a link
 
Copyright © AirNav, LLC. All rights reserved. Privacy Policy  Contact